Other Public Products
Issued by NWS Charleston, SC

Current Version | Previous Version | Graphics & Text | Print | Product List | Glossary On
Versions: 1 2 3 4 5 6 7 8 9 10 11 12 13 14 15 16 17 18 19 20 21 22 23 24 25 26 27 28 29 30 31 32 33 34 35 36 37 38 39 40 41 42 43 44 45 46 47 48 49 50
000
FPUS82 KCHS 191212
OPUCHS

TEST...KCHS/KSAV Gateway Observations...TEST
National Weather Service Charleston SC
700 AM EST SUN NOV 19 2017

NOTE: "fair" indicates few or no clouds below 12,000 feet with no
significant weather and/or obstructions to visibility.

SCZ050-WAZ558-NCZ071-TXZ119-213-PAZ071-DCZ001-FLZ074-172-MI076-
NYZ176-178-MAZ016-IL014-TNZ027-NJZ106-GAZ044-MD014-191300-

...Gateway Observations for Charleston International...

CITY           SKY/WX    TMP DP  RH WIND       PRES   REMARKS
Chas Airport   CLOUDY    62  59  90 W12       29.78R
6HR MIN TEMP:  62; 6HR MAX TEMP:  66;

Seattle        MOCLDY    40  35  83 S5        30.04F WCI  37
6HR MIN TEMP:  39; 6HR MAX TEMP:  44;

Charlotte      PTCLDY    48  38  68 NW7       29.80R
6HR MIN TEMP:  48; 6HR MAX TEMP:  66; 6HR PCP:  0.01;

Dallas DFW     CLEAR     43  34  70 NW8       30.31R
6HR MIN TEMP:  42; 6HR MAX TEMP:  49;

Dallas Love    CLEAR     42  35  76 CALM      30.33R
6HR MIN TEMP:  42; 6HR MAX TEMP:  49;

Philladelphia  CLOUDY    54  41  61 W31G41    29.37R
6HR MIN TEMP:  54; 6HR MAX TEMP:  62; 6HR PCP:  0.33;

Wash National  PTCLDY    50  34  54 W17G29    29.58R
6HR MIN TEMP:  50; 6HR MAX TEMP:  63; 6HR PCP:  0.07;

Baltimore      PTCLDY    47  34  60 W21G33    29.54R
6HR MIN TEMP:  47; 6HR MAX TEMP:  61; 6HR PCP:  0.16;

Miami          PTCLDY    65  62  90 CALM      29.97R
6HR MIN TEMP:  65; 6HR MAX TEMP:  72;

Detroit        CLOUDY    36  27  69 NW13      29.77R WCI  27
6HR MIN TEMP:  36; 6HR MAX TEMP:  39; 6HR PCP: TRACE;

Newark         LGT RAIN  57  53  86 SW22G36   29.22F
6HR MIN TEMP:  56; 6HR MAX TEMP:  59; 6HR PCP:  0.25;

Laguardia      LGT RAIN  58  53  84 SW20G35   29.22F
6HR MIN TEMP:  57; 6HR MAX TEMP:  60; 6HR PCP:  0.21;

J F K          LGT RAIN  58  56  93 SW22G29   29.25F
6HR MIN TEMP:  55; 6HR MAX TEMP:  58; 6HR PCP:  0.23;

Boston Logan   LGT RAIN  58  56  93 S18G26    29.21S
6HR MIN TEMP:  50; 6HR MAX TEMP:  59; 6HR PCP:  0.12;

Ft. Lauderdale PTCLDY    66  65  96 NW6       29.96R
6HR MIN TEMP:  65; 6HR MAX TEMP:  70;

Chicago O`Hare CLOUDY    31  20  63 W12G20    29.94R WCI  22
6HR MIN TEMP:  31; 6HR MAX TEMP:  38;

Chicago Midway MOCLDY    31  21  66 NW14      29.97R WCI  21
6HR MIN TEMP:  31; 6HR MAX TEMP:  38;

Houston Bush   CLEAR     49  37  63 N10       30.27R
6HR MIN TEMP:  49; 6HR MAX TEMP:  57;

Houston Hobby  PTCLDY    50  36  58 N12       30.26R
6HR MIN TEMP:  50; 6HR MAX TEMP:  58;

Nashville      CLOUDY    42  31  64 NW6       30.07R
6HR MIN TEMP:  42; 6HR MAX TEMP:  46;

Atlanta        MOCLDY    45  36  70 NW16G26   29.97R
6HR MIN TEMP:  45; 6HR MAX TEMP:  53; 6HR PCP: TRACE;


$$

GAZ044-118-TXZ119-213-NCZ071-DCZ001-MDZ014-506-PAZ021-071-NJZ106-
NYZ176-178-MAZ106-OHZ011-021-055-MIZ076-KYZ091-ILZ014-INZ047-
MNZ060-ONZ431-191300-

...Gateway Observations for Savannah International...

CITY           SKY/WX    TMP DP  RH WIND       PRES   REMARKS
Savannah Arpt  CLOUDY    60  58  92 W8        29.83R
6HR MIN TEMP:  60; 6HR MAX TEMP:  66; 6HR PCP: TRACE;

Atlanta        MOCLDY    45  36  70 NW16G26   29.97R
6HR MIN TEMP:  45; 6HR MAX TEMP:  53; 6HR PCP: TRACE;

Charlotte      PTCLDY    48  38  68 NW7       29.80R
6HR MIN TEMP:  48; 6HR MAX TEMP:  66; 6HR PCP:  0.01;

Dallas DFW     CLEAR     43  34  70 NW8       30.31R
6HR MIN TEMP:  42; 6HR MAX TEMP:  49;

Houston Bush   CLEAR     49  37  63 N10       30.27R
6HR MIN TEMP:  49; 6HR MAX TEMP:  57;

Wash National  PTCLDY    50  34  54 W17G29    29.58R
6HR MIN TEMP:  50; 6HR MAX TEMP:  63; 6HR PCP:  0.07;

Wash Dulles    PTCLDY    46  32  58 NW18G31   29.59R
6HR MIN TEMP:  46; 6HR MAX TEMP:  60; 6HR PCP:  0.06;

Baltimore      PTCLDY    47  34  60 W21G33    29.54R
6HR MIN TEMP:  47; 6HR MAX TEMP:  61; 6HR PCP:  0.16;

Philadelphia   CLOUDY    54  41  61 W31G41    29.37R
6HR MIN TEMP:  54; 6HR MAX TEMP:  62; 6HR PCP:  0.33;

Newark         LGT RAIN  57  53  86 SW22G36   29.22F
6HR MIN TEMP:  56; 6HR MAX TEMP:  59; 6HR PCP:  0.25;

Laguardia      LGT RAIN  58  53  84 SW20G35   29.22F
6HR MIN TEMP:  57; 6HR MAX TEMP:  60; 6HR PCP:  0.21;

J F K          LGT RAIN  58  56  93 SW22G29   29.25F
6HR MIN TEMP:  55; 6HR MAX TEMP:  58; 6HR PCP:  0.23;

Boston         LGT RAIN  58  56  93 S18G26    29.21S
6HR MIN TEMP:  50; 6HR MAX TEMP:  59; 6HR PCP:  0.12;

Pittsburg      CLOUDY    38  34  85 W21G29    29.68R WCI  28
6HR MIN TEMP:  37; 6HR MAX TEMP:  42; 6HR PCP:  0.02;

Akron          FLURRIES  36  31  82 NW14G22   29.73R WCI  27
6HR MIN TEMP:  36; 6HR MAX TEMP:  39; 6HR PCP:  0.02;

Cleveland      CLOUDY    39  29  67 W15       29.77R WCI  31
6HR MIN TEMP:  37; 6HR MAX TEMP:  41; 6HR PCP:  0.03;

Cincinnati     CLOUDY    38  31  76 W9        29.93R WCI  31
6HR MIN TEMP:  38; 6HR MAX TEMP:  41;

Columbus       CLOUDY    38  33  84 NW10      29.85R WCI  31
Detroit        CLOUDY    36  27  69 NW13      29.77R WCI  27
6HR MIN TEMP:  36; 6HR MAX TEMP:  39; 6HR PCP: TRACE;

Chicago O`Hare CLOUDY    31  20  63 W12G20    29.94R WCI  22
6HR MIN TEMP:  31; 6HR MAX TEMP:  38;

Minneapolis    CLEAR     19  11  70 W5        30.07S WCI  12
6HR MIN TEMP:  18; 6HR MAX TEMP:  21;

Indianapolis   CLOUDY    34  29  82 W16       29.97R WCI  24
6HR MIN TEMP:  34; 6HR MAX TEMP:  39;

Toronto Canada MOCLDY    36  30  80 NW13G22   29.51R WCI  27

$$




USA.gov is the U.S. government's official web portal to all federal, state and local government web resources and services.